Tucson, AZ (85712)

11:12 PM MST on September 01, 2015 (GMT -0700)
Rose Hill Estates | | Change Station
CLOSE
Current Station
Personal Weather Station
Location: Tucson, AZ
Elevation: 2503 ft
Nearby Weather Stations

Elev 2503 ft 32.25 °N, 110.86 °W | Updated 41 seconds ago

Partly Cloudy
Partly Cloudy
82.2 °F
Feels Like 84 °F
N
0.0
Wind Variable Wind from SE
Gusts 0.0 mph

Today
High -- | Low -- °F
--% Chance of Precip.
Yesterday
High -- | Low -- °F
Precip. -- in
5:58 AM 6:48 PM
Waning Gibbous, 83% visible
Pressure 29.88 in
Visibility 10.0 miles
Clouds Few 20000 ft
Heat Index 84 °F
Dew Point 66 °F
Humidity 57%
Rainfall in
Snow Depth Not available.
UV 0 out of 12
Pollen 4.90 out of 12
Air Quality Not available.
Flu Activity Not available.
METAR KDMA 020558Z 14003KT 10SM FEW200 27/20 A3001 RMK AO2A SLP116 T02720200 10326 20269 50010 $
Pressure 29.88 in
Visibility 10.0 miles
Clouds Few 20000 ft
Heat Index 84 °F
Dew Point 66 °F
Humidity 57%
Rainfall in
Snow Depth Not available.
UV 0 out of 12
Pollen 4.90 out of 12
Air Quality Not available.
Flu Activity Not available.
METAR KDMA 020558Z 14003KT 10SM FEW200 27/20 A3001 RMK AO2A SLP116 T02720200 10326 20269 50010 $
Nowcast | as of 9:17 PM MST on September 1, 2015

Isolated showers...perhaps with a few embedded lightning strikes...will continue to impact portions of east central Pima and southeast Pinal counties through 1115 PM. These showers may produce a few hundredths to one tenth of an inch of rain and a brief wind gust to 35 mph as they move towards the northwest at 5 to 10 mph. Some additional light showers may also linger across portions of northeastern Pinal County.

×

10-Day Weather Forecast

×

Almanac

Astronomy

Sep. 01, 2015 Rise Set
Actual Time
Civil Twilight
Nautical Twilight
Astronomical Twilight
Moon
Length of Visible Light
Length of Day
Tomorrow will be .
, % of the Moon is Illuminated

Today's Extremes

State Highs State Lows

Community

WunderPhotos

Upload Photos

1,851,709 photos uploaded!

WunderBlogs® & News

Nearby

Air Quality

  Air Quality AQ Index Pollutant
Not available.

Snow Depth

Station Depth Elevation

Earthquake Activity

City Distance Mag. Time & Date
Minimum magnitude displayed is 2.5.

Coastal Water Temperatures

Place Temperature

Stations

Nearby Weather Stations

Station Location Temp. Windchill Dew Point Humidity Wind Precip. Elev Updated Type